When you browse on this site, cookies collect data to enhance your experience and personalize the content and advertising you see.
Visit our Privacy Policy to learn more. By continuing to use the site, you agree to this use of cookies and data.
  • In Lithuania
  • List of Countries
  • For 7 days
  • Water Temperature
  • Weather Map
  • Weather Widgets
  • user-avatar
    Login

    Hourly Weather Al-Budajji

    Today, 16 December, Monday

    Time Temperature Precipitation Wind Pressure Humidity
    00:00 +26°C° 0 mm 5 mps 765 mmHg 71%
    01:00 +26°C° 0 mm 6 mps 765 mmHg 72%
    02:00 +26°C° 0 mm 5 mps 764 mmHg 71%
    03:00 +26°C° 0 mm 5 mps 764 mmHg 70%
    04:00 +26°C° 0 mm 4 mps 763 mmHg 69%
    05:00 +26°C° 0.1 mm 5 mps 763 mmHg 69%
    06:00 +26°C° 0.1 mm 5 mps 764 mmHg 70%
    07:00 +26°C° 0.1 mm 6 mps 764 mmHg 71%
    08:00 +25°C° 3.1 mm 5 mps 765 mmHg 77%
    09:00 +23°C° 3.1 mm 5 mps 765 mmHg 83%
    10:00 +22°C° 3.1 mm 4 mps 766 mmHg 89%
    11:00 +22°C° 2 mm 5 mps 766 mmHg 89%
    12:00 +22°C° 2 mm 6 mps 765 mmHg 89%
    13:00 +23°C° 2 mm 7 mps 765 mmHg 90%
    14:00 +23°C° 0.3 mm 8 mps 764 mmHg 89%
    15:00 +23°C° 0.3 mm 8 mps 764 mmHg 88%
    16:00 +24°C° 0.3 mm 9 mps 763 mmHg 87%
    17:00 +24°C° 0 mm 9 mps 763 mmHg 84%
    18:00 +24°C° 0 mm 9 mps 763 mmHg 82%
    19:00 +26°C° 0 mm 9 mps 763 mmHg 79%
    20:00 +26°C° 0 mm 10 mps 763 mmHg 79%
    21:00 +26°C° 0 mm 11 mps 763 mmHg 80%
    22:00 +26°C° 0 mm 12 mps 763 mmHg 80%
    23:00 +26°C° 0 mm 12 mps 763 mmHg 79%

    Tomorrow, 17 December, Tuesday

    Time Temperature Precipitation Wind Pressure Humidity
    00:00 +26°C° 0 mm 11 mps 763 mmHg 78%
    01:00 +27°C° 0 mm 11 mps 763 mmHg 77%
    02:00 +27°C° 0 mm 10 mps 763 mmHg 77%
    03:00 +27°C° 0 mm 10 mps 763 mmHg 77%
    04:00 +27°C° 0 mm 9 mps 762 mmHg 78%
    05:00 +27°C° 0.1 mm 8 mps 763 mmHg 77%
    06:00 +27°C° 0.1 mm 7 mps 764 mmHg 76%
    07:00 +27°C° 0.1 mm 6 mps 764 mmHg 75%
    08:00 +27°C° 0.4 mm 7 mps 765 mmHg 74%
    09:00 +27°C° 0.4 mm 8 mps 765 mmHg 73%
    10:00 +27°C° 0.4 mm 8 mps 766 mmHg 72%
    11:00 +27°C° 0.4 mm 8 mps 766 mmHg 73%
    12:00 +26°C° 0.4 mm 8 mps 766 mmHg 75%
    13:00 +26°C° 0.4 mm 8 mps 766 mmHg 77%
    14:00 +26°C° 0.2 mm 7 mps 765 mmHg 78%
    15:00 +24°C° 0.2 mm 7 mps 765 mmHg 80%
    16:00 +24°C° 0.2 mm 7 mps 765 mmHg 82%
    17:00 +24°C° 0 mm 7 mps 765 mmHg 82%
    18:00 +24°C° 0 mm 8 mps 766 mmHg 81%
    19:00 +24°C° 0 mm 8 mps 766 mmHg 81%
    20:00 +24°C° 0 mm 8 mps 766 mmHg 79%
    21:00 +24°C° 0 mm 7 mps 767 mmHg 78%
    22:00 +24°C° 0 mm 7 mps 767 mmHg 77%
    23:00 +23°C° 0 mm 7 mps 767 mmHg 76%

    Day after tomorrow, 18 December, Wednesday

    Time Temperature Precipitation Wind Pressure Humidity
    00:00 +23°C° 0 mm 7 mps 767 mmHg 76%
    01:00 +23°C° 0 mm 8 mps 767 mmHg 76%
    02:00 +23°C° 0 mm 8 mps 767 mmHg 77%
    03:00 +23°C° 0 mm 8 mps 767 mmHg 79%
    04:00 +23°C° 0 mm 8 mps 767 mmHg 80%
    05:00 +22°C° 0 mm 8 mps 767 mmHg 79%
    06:00 +22°C° 0 mm 8 mps 768 mmHg 78%
    07:00 +22°C° 0 mm 8 mps 768 mmHg 78%
    08:00 +22°C° 0 mm 8 mps 768 mmHg 77%
    09:00 +22°C° 0 mm 8 mps 769 mmHg 76%
    10:00 +22°C° 0 mm 8 mps 769 mmHg 75%
    11:00 +22°C° 0 mm 8 mps 769 mmHg 73%
    12:00 +22°C° 0 mm 8 mps 768 mmHg 72%
    13:00 +22°C° 0 mm 8 mps 768 mmHg 70%
    14:00 +22°C° 0 mm 8 mps 768 mmHg 70%
    15:00 +23°C° 0 mm 8 mps 767 mmHg 69%
    16:00 +23°C° 0 mm 9 mps 767 mmHg 69%
    17:00 +23°C° 0 mm 9 mps 768 mmHg 69%
    18:00 +23°C° 0 mm 9 mps 768 mmHg 69%
    19:00 +23°C° 0 mm 9 mps 768 mmHg 68%
    20:00 +23°C° 0 mm 8 mps 769 mmHg 68%
    21:00 +23°C° 0 mm 8 mps 769 mmHg 68%
    22:00 +23°C° 0 mm 8 mps 769 mmHg 67%
    23:00 +22°C° 0 mm 9 mps 769 mmHg 68%

    19 December, Thursday

    Time Temperature Precipitation Wind Pressure Humidity
    00:00 +22°C° 0 mm 9 mps 768 mmHg 68%
    01:00 +22°C° 0 mm 9 mps 768 mmHg 68%
    02:00 +22°C° 0 mm 9 mps 768 mmHg 68%
    03:00 +22°C° 0 mm 9 mps 768 mmHg 68%
    04:00 +22°C° 0 mm 9 mps 768 mmHg 68%
    05:00 +22°C° 0 mm 9 mps 768 mmHg 68%
    06:00 +22°C° 0 mm 9 mps 769 mmHg 68%
    07:00 +22°C° 0 mm 9 mps 769 mmHg 68%
    08:00 +22°C° 0 mm 9 mps 769 mmHg 68%
    09:00 +22°C° 0 mm 9 mps 769 mmHg 68%
    10:00 +22°C° 0 mm 9 mps 769 mmHg 68%
    11:00 +22°C° 0 mm 9 mps 769 mmHg 69%
    12:00 +22°C° 0 mm 9 mps 769 mmHg 69%
    13:00 +22°C° 0 mm 9 mps 768 mmHg 70%
    14:00 +22°C° 0 mm 9 mps 768 mmHg 69%
    15:00 +22°C° 0 mm 9 mps 768 mmHg 69%
    16:00 +22°C° 0 mm 9 mps 767 mmHg 69%
    17:00 +22°C° 0 mm 9 mps 768 mmHg 70%
    18:00 +22°C° 0 mm 8 mps 768 mmHg 70%
    19:00 +22°C° 0 mm 8 mps 768 mmHg 70%
    20:00 +23°C° 0 mm 8 mps 768 mmHg 69%
    21:00 +23°C° 0 mm 7 mps 768 mmHg 67%
    22:00 +23°C° 0 mm 6 mps 768 mmHg 66%
    23:00 +23°C° 0 mm 6 mps 768 mmHg 62%

    20 December, Friday

    Time Temperature Precipitation Wind Pressure Humidity
    00:00 +23°C° 0 mm 5 mps 768 mmHg 59%
    01:00 +25°C° 0 mm 4 mps 768 mmHg 55%
    02:00 +25°C° 0 mm 4 mps 767 mmHg 53%
    03:00 +25°C° 0 mm 3 mps 767 mmHg 50%
    04:00 +25°C° 0 mm 3 mps 767 mmHg 48%
    05:00 +25°C° 0 mm 3 mps 767 mmHg 47%
    06:00 +25°C° 0 mm 3 mps 768 mmHg 45%
    07:00 +25°C° 0 mm 3 mps 768 mmHg 44%
    08:00 +25°C° 0 mm 3 mps 768 mmHg 45%
    09:00 +25°C° 0 mm 3 mps 768 mmHg 46%
    10:00 +25°C° 0 mm 3 mps 769 mmHg 46%
    11:00 +25°C° 0 mm 3 mps 768 mmHg 46%
    12:00 +25°C° 0 mm 3 mps 768 mmHg 46%
    13:00 +25°C° 0 mm 3 mps 768 mmHg 46%
    14:00 +25°C° 0 mm 2 mps 767 mmHg 45%
    15:00 +25°C° 0 mm 2 mps 767 mmHg 45%
    16:00 +25°C° 0 mm 2 mps 767 mmHg 44%
    17:00 +25°C° 0 mm 2 mps 767 mmHg 44%
    18:00 +25°C° 0 mm 2 mps 767 mmHg 44%
    19:00 +25°C° 0 mm 3 mps 768 mmHg 44%
    20:00 +25°C° 0 mm 3 mps 768 mmHg 42%
    21:00 +25°C° 0 mm 3 mps 768 mmHg 41%
    22:00 +25°C° 0 mm 4 mps 768 mmHg 40%
    23:00 +25°C° 0 mm 4 mps 768 mmHg 39%

    21 December, Saturday

    Time Temperature Precipitation Wind Pressure Humidity
    00:00 +25°C° 0 mm 3 mps 768 mmHg 38%
    01:00 +25°C° 0 mm 3 mps 767 mmHg 37%
    02:00 +25°C° 0 mm 3 mps 767 mmHg 38%
    03:00 +25°C° 0 mm 3 mps 767 mmHg 39%
    04:00 +24°C° 0 mm 3 mps 767 mmHg 41%
    05:00 +24°C° 0 mm 3 mps 767 mmHg 41%
    06:00 +24°C° 0 mm 3 mps 767 mmHg 42%
    07:00 +24°C° 0 mm 3 mps 768 mmHg 42%
    08:00 +24°C° 0 mm 3 mps 768 mmHg 43%
    09:00 +24°C° 0 mm 3 mps 768 mmHg 44%
    10:00 +24°C° 0 mm 3 mps 769 mmHg 45%
    11:00 +24°C° 0 mm 3 mps 768 mmHg 47%
    12:00 +24°C° 0 mm 3 mps 768 mmHg 49%
    13:00 +23°C° 0 mm 4 mps 767 mmHg 50%
    14:00 +23°C° 0 mm 4 mps 767 mmHg 52%
    15:00 +23°C° 0 mm 4 mps 767 mmHg 53%
    16:00 +23°C° 0 mm 5 mps 767 mmHg 55%
    17:00 +23°C° 0 mm 5 mps 767 mmHg 56%
    18:00 +23°C° 0 mm 5 mps 767 mmHg 57%
    19:00 +23°C° 0 mm 6 mps 767 mmHg 58%
    20:00 +23°C° 0 mm 6 mps 767 mmHg 59%
    21:00 +23°C° 0 mm 6 mps 767 mmHg 59%
    22:00 +23°C° 0 mm 6 mps 767 mmHg 60%
    23:00 +23°C° 0 mm 6 mps 767 mmHg 60%
    Show more